Simultaneous Nadir Overpasses (SNOs) Predictions

Prediction of SNOs between METOP-B and TERRA Satellite Orbit:

Table of predicted SNOs for the next 14.0 days since TLE Epoch: 5/16/2020
Index Date (METOP-B) Time (METOP-B) Lat,Lon (METOP-B) SZA (METOP-B ) Date (TERRA) Time (TERRA) Lat,Lon (TERRA) SZA (TERRA ) Distance(km) Time Diff (sec)
1 05/16/2020 06:09:29 81.32, 135.16 65.14 05/16/2020 06:09:50 81.32, 135.21 65.16 0.82 21
2 05/16/2020 07:00:09 -81.32, -57.22 114.84 05/16/2020 06:59:17 -81.31, -57.29 114.88 1.49 52
3 05/19/2020 01:43:50 81.32,-158.13 64.56 05/19/2020 01:44:05 81.32,-158.33 64.54 3.25 15
4 05/19/2020 02:34:31 -81.32, 9.14 115.46 05/19/2020 02:33:32 -81.32, 9.20 115.49 1.29 59
5 05/21/2020 21:18:12 81.32, -91.83 63.97 05/21/2020 21:18:20 81.32, -91.88 63.97 0.75 8
6 05/21/2020 22:08:53 -81.32, 75.49 116.05 05/21/2020 22:07:47 -81.32, 75.69 116.06 3.35 66
7 05/24/2020 16:02:11 -81.16, 160.01 117.48 05/24/2020 16:03:25 -80.92, 160.66 117.55 28.78 74
8 05/24/2020 16:52:33 81.32, -25.54 63.42 05/24/2020 16:52:34 81.32, -25.44 63.44 1.77 1
9 05/24/2020 17:43:13 -81.32, 142.22 116.54 05/24/2020 17:42:01 -81.32, 142.15 116.58 1.21 72
10 05/27/2020 11:36:15 -81.32,-126.73 117.10 05/27/2020 11:37:23 -81.32,-126.70 117.06 0.63 68




NCC Satellite Simultaneous Nadir Overpasses (SNOs) Prediction Service
